NOZ183 ENHD-ENGM

Flight info

Callsign NOZ183
Flight time 0h 37m
Altitude 27000
Route ODINU DCT BOBGA DCT ADOPI
Aircraft B738/M-SDE2E3FGHIRWXY/LB1

Departure

Time 2026-05-04 18:56
Airport Haugesund Airport, Karmøy (ENHD)

Arrival

Time 2026-05-04 19:33
Airport Oslo-Gardermoen International Airport (ENGM)
Time Latitude Longitude Altitude Speed Heading
2026-05-04 18:19 59.34394 5.21664 90 ft 0 kts 44°
2026-05-04 18:49 59.34387 5.21651 91 ft 3 kts 44°
2026-05-04 18:49 59.34372 5.21614 86 ft 4 kts 70°
2026-05-04 18:50 59.34371 5.21566 87 ft 4 kts 121°
2026-05-04 18:50 59.34376 5.21550 91 ft 1 kts 135°
2026-05-04 18:53 59.34376 5.21551 91 ft 0 kts 135°
2026-05-04 18:53 59.34364 5.21575 87 ft 5 kts 135°
2026-05-04 18:53 59.34327 5.21588 88 ft 6 kts 193°
2026-05-04 18:53 59.34267 5.21483 87 ft 13 kts 227°
2026-05-04 18:54 59.34190 5.21489 90 ft 13 kts 137°
2026-05-04 18:54 59.34121 5.21626 84 ft 16 kts 133°
2026-05-04 18:54 59.34031 5.21816 86 ft 20 kts 133°
2026-05-04 18:54 59.33937 5.22015 90 ft 21 kts 132°
2026-05-04 18:55 59.33835 5.22236 96 ft 22 kts 132°
2026-05-04 18:55 59.33755 5.22385 96 ft 3 kts 321°
2026-05-04 18:55 59.33822 5.22253 98 ft 44 kts 315°
2026-05-04 18:56 59.34256 5.21395 89 ft 136 kts 317°
2026-05-04 18:56 59.35057 5.19897 770 ft 167 kts 316°
2026-05-04 18:56 59.35881 5.18220 2192 ft 167 kts 315°
2026-05-04 18:56 59.36744 5.16626 3355 ft 174 kts 327°
2026-05-04 18:57 59.37932 5.15959 3976 ft 192 kts
2026-05-04 18:57 59.39120 5.17345 4607 ft 216 kts 49°
2026-05-04 18:57 59.39685 5.20207 5173 ft 236 kts 70°
2026-05-04 18:57 59.40260 5.23445 5428 ft 267 kts 65°
2026-05-04 18:58 59.40964 5.26959 6071 ft 283 kts 65°
2026-05-04 18:58 59.41708 5.30601 6913 ft 292 kts 64°
2026-05-04 18:58 59.42483 5.34355 7720 ft 301 kts 64°
2026-05-04 18:58 59.43285 5.38219 8538 ft 310 kts 64°
2026-05-04 18:59 59.44110 5.42201 9352 ft 320 kts 64°
2026-05-04 18:59 59.44963 5.46299 10127 ft 328 kts 64°
2026-05-04 18:59 59.45856 5.50567 10559 ft 350 kts 64°
2026-05-04 18:59 59.46802 5.55094 11123 ft 363 kts 64°
2026-05-04 19:00 59.47769 5.59741 11899 ft 370 kts 63°
2026-05-04 19:00 59.48750 5.64467 12767 ft 377 kts 63°
2026-05-04 19:00 59.49752 5.69302 13528 ft 386 kts 63°
2026-05-04 19:00 59.50773 5.74232 14178 ft 393 kts 63°
2026-05-04 19:01 59.51808 5.79245 14908 ft 397 kts 63°
2026-05-04 19:01 59.52851 5.84319 15637 ft 402 kts 62°
2026-05-04 19:01 59.53900 5.89444 16416 ft 406 kts 63°
2026-05-04 19:01 59.54965 5.94643 17121 ft 413 kts 63°
2026-05-04 19:02 59.56046 5.99926 17785 ft 418 kts 63°
2026-05-04 19:02 59.57136 6.05269 18445 ft 422 kts 63°
2026-05-04 19:02 59.58234 6.10673 19039 ft 427 kts 63°
2026-05-04 19:02 59.59340 6.16141 19718 ft 431 kts 63°
2026-05-04 19:03 59.60456 6.21663 20383 ft 435 kts 63°
2026-05-04 19:03 59.61594 6.27315 20997 ft 439 kts 63°
2026-05-04 19:03 59.62724 6.32956 21567 ft 444 kts 64°
2026-05-04 19:03 59.63848 6.38580 22231 ft 447 kts 64°
2026-05-04 19:04 59.65007 6.44383 22996 ft 448 kts 64°
2026-05-04 19:04 59.66148 6.50094 23761 ft 445 kts 64°
2026-05-04 19:04 59.67283 6.55783 24391 ft 444 kts 64°
2026-05-04 19:04 59.68420 6.61461 25039 ft 443 kts 63°
2026-05-04 19:05 59.69663 6.67019 25648 ft 441 kts 59°
2026-05-04 19:05 59.70996 6.72484 26243 ft 440 kts 58°
2026-05-04 19:05 59.72360 6.77908 26895 ft 442 kts 58°
2026-05-04 19:05 59.73755 6.83428 26837 ft 451 kts 58°
2026-05-04 19:06 59.75135 6.88971 26843 ft 446 kts 58°
2026-05-04 19:06 59.76483 6.94465 26824 ft 440 kts 58°
2026-05-04 19:06 59.77810 6.99922 26836 ft 440 kts 58°
2026-05-04 19:06 59.79141 7.05414 26858 ft 442 kts 59°
2026-05-04 19:07 59.80472 7.10935 26814 ft 444 kts 59°
2026-05-04 19:07 59.81805 7.16483 26831 ft 446 kts 59°
2026-05-04 19:07 59.83137 7.22049 26828 ft 446 kts 59°
2026-05-04 19:07 59.84467 7.27625 26782 ft 446 kts 59°
2026-05-04 19:08 59.85771 7.33110 26827 ft 443 kts 60°
2026-05-04 19:08 59.87105 7.38727 26810 ft 442 kts 60°
2026-05-04 19:08 59.88412 7.44248 26805 ft 440 kts 60°
2026-05-04 19:08 59.89697 7.49684 26803 ft 439 kts 60°
2026-05-04 19:09 59.90994 7.55182 26814 ft 438 kts 60°
2026-05-04 19:09 59.92286 7.60672 26794 ft 437 kts 60°
2026-05-04 19:09 59.93574 7.66160 26811 ft 436 kts 60°
2026-05-04 19:09 59.94858 7.71645 26875 ft 436 kts 59°
2026-05-04 19:10 59.96158 7.77213 26843 ft 438 kts 59°
2026-05-04 19:10 59.97451 7.82756 26823 ft 442 kts 59°
2026-05-04 19:10 59.98740 7.88306 26732 ft 438 kts 59°
2026-05-04 19:10 60.00016 7.93823 26380 ft 436 kts 59°
2026-05-04 19:11 60.01280 7.99302 26019 ft 433 kts 60°
2026-05-04 19:11 60.02519 8.04684 25651 ft 431 kts 60°
2026-05-04 19:11 60.03766 8.10118 25292 ft 429 kts 61°
2026-05-04 19:11 60.04852 8.15809 24761 ft 436 kts 67°
2026-05-04 19:12 60.05774 8.21612 24294 ft 438 kts 69°
2026-05-04 19:12 60.07487 8.33258 23607 ft 433 kts 70°
2026-05-04 19:12 60.08336 8.39032 23263 ft 431 kts 69°
2026-05-04 19:13 60.09186 8.44741 22785 ft 425 kts 69°
2026-05-04 19:13 60.10037 8.50386 22209 ft 422 kts 69°
2026-05-04 19:13 60.10892 8.56009 21635 ft 420 kts 69°
2026-05-04 19:13 60.11740 8.61586 21194 ft 417 kts 69°
2026-05-04 19:14 60.12581 8.67132 20813 ft 414 kts 69°
2026-05-04 19:14 60.13414 8.72640 20461 ft 412 kts 69°
2026-05-04 19:14 60.14242 8.78125 20103 ft 410 kts 69°
2026-05-04 19:14 60.15064 8.83588 19724 ft 408 kts 69°
2026-05-04 19:15 60.15881 8.89030 19396 ft 406 kts 69°
2026-05-04 19:15 60.16691 8.94453 19116 ft 405 kts 69°
2026-05-04 19:15 60.17499 8.99876 18682 ft 405 kts 69°
2026-05-04 19:15 60.18300 9.05274 18382 ft 401 kts 69°
2026-05-04 19:16 60.19098 9.10656 17961 ft 402 kts 69°
2026-05-04 19:16 60.19891 9.16039 17605 ft 400 kts 69°
2026-05-04 19:16 60.20668 9.21323 17223 ft 399 kts 70°
2026-05-04 19:16 60.21450 9.26652 16856 ft 397 kts 70°
2026-05-04 19:17 60.22235 9.32027 16525 ft 394 kts 70°
2026-05-04 19:17 60.22992 9.37222 16169 ft 390 kts 70°
2026-05-04 19:17 60.23747 9.42436 15828 ft 388 kts 70°
2026-05-04 19:17 60.24500 9.47637 15488 ft 386 kts 70°
2026-05-04 19:18 60.25245 9.52804 15145 ft 383 kts 70°
2026-05-04 19:18 60.25984 9.57936 14820 ft 380 kts 70°
2026-05-04 19:18 60.26713 9.63027 14500 ft 377 kts 71°
2026-05-04 19:18 60.27434 9.68082 14174 ft 374 kts 71°
2026-05-04 19:19 60.28150 9.73116 13855 ft 373 kts 71°
2026-05-04 19:19 60.28863 9.78127 13504 ft 371 kts 71°
2026-05-04 19:19 60.29569 9.83107 13137 ft 369 kts 71°
2026-05-04 19:19 60.30269 9.88056 12769 ft 365 kts 71°
2026-05-04 19:20 60.30958 9.92957 12461 ft 362 kts 71°
2026-05-04 19:20 60.31639 9.97811 12226 ft 354 kts 71°
2026-05-04 19:20 60.32299 10.02536 12041 ft 347 kts 71°
2026-05-04 19:20 60.32950 10.07202 11741 ft 344 kts 71°
2026-05-04 19:21 60.33595 10.11825 11413 ft 341 kts 71°
2026-05-04 19:21 60.34232 10.16429 11077 ft 339 kts 72°
2026-05-04 19:21 60.34860 10.20976 10823 ft 334 kts 72°
2026-05-04 19:21 60.35482 10.25478 10495 ft 332 kts 72°
2026-05-04 19:22 60.36099 10.29959 10205 ft 330 kts 72°
2026-05-04 19:22 60.36704 10.34374 10018 ft 321 kts 73°
2026-05-04 19:22 60.37283 10.38618 9942 ft 305 kts 72°
2026-05-04 19:22 60.37843 10.42727 9566 ft 302 kts 73°
2026-05-04 19:23 60.38392 10.46765 9267 ft 295 kts 73°
2026-05-04 19:23 60.38929 10.50720 8983 ft 288 kts 72°
2026-05-04 19:23 60.39451 10.54578 8716 ft 281 kts 72°
2026-05-04 19:23 60.39961 10.58355 8461 ft 275 kts 72°
2026-05-04 19:24 60.40460 10.62057 8202 ft 273 kts 72°
2026-05-04 19:24 60.40960 10.65774 7942 ft 276 kts 72°
2026-05-04 19:24 60.41471 10.69570 7690 ft 283 kts 72°
2026-05-04 19:24 60.41989 10.73446 7403 ft 286 kts 72°
2026-05-04 19:25 60.42505 10.77324 7128 ft 284 kts 72°
2026-05-04 19:25 60.43018 10.81175 6837 ft 283 kts 72°
2026-05-04 19:25 60.43527 10.85003 6546 ft 281 kts 73°
2026-05-04 19:25 60.44033 10.88815 6284 ft 279 kts 73°
2026-05-04 19:26 60.44541 10.92662 5987 ft 279 kts 73°
2026-05-04 19:26 60.45039 10.96439 5741 ft 276 kts 73°
2026-05-04 19:26 60.45364 10.98898 5658 ft 271 kts 73°
2026-05-04 19:26 60.45839 11.02534 5520 ft 263 kts 73°
2026-05-04 19:27 60.46202 11.06090 5423 ft 255 kts 89°
2026-05-04 19:27 60.45800 11.09511 5226 ft 250 kts 121°
2026-05-04 19:27 60.44770 11.12245 5067 ft 240 kts 138°
2026-05-04 19:27 60.43588 11.14558 4990 ft 234 kts 141°
2026-05-04 19:28 60.42411 11.16804 4674 ft 235 kts 140°
2026-05-04 19:28 60.41207 11.18969 4378 ft 227 kts 153°
2026-05-04 19:28 60.39781 11.19652 4114 ft 203 kts 196°
2026-05-04 19:28 60.38482 11.18849 3918 ft 192 kts 202°
2026-05-04 19:29 60.37204 11.18141 3707 ft 192 kts 200°
2026-05-04 19:29 60.35902 11.17418 3534 ft 195 kts 201°
2026-05-04 19:29 60.34629 11.16694 3434 ft 186 kts 202°
2026-05-04 19:29 60.33392 11.16046 3204 ft 180 kts 202°
2026-05-04 19:30 60.32210 11.15320 2966 ft 174 kts 204°
2026-05-04 19:30 60.31060 11.14634 2718 ft 168 kts 202°
2026-05-04 19:30 60.29968 11.14003 2502 ft 161 kts 202°
2026-05-04 19:30 60.28903 11.13383 2262 ft 158 kts 201°
2026-05-04 19:31 60.27852 11.12778 2074 ft 157 kts 204°
2026-05-04 19:31 60.26819 11.12183 1849 ft 152 kts 204°
2026-05-04 19:31 60.25829 11.11610 1639 ft 141 kts 203°
2026-05-04 19:31 60.24911 11.11080 1434 ft 135 kts 204°
2026-05-04 19:32 60.24000 11.10551 1228 ft 137 kts 200°
2026-05-04 19:32 60.23060 11.10087 973 ft 148 kts 201°
2026-05-04 19:32 60.22090 11.09433 830 ft 146 kts 200°
2026-05-04 19:32 60.21123 11.08891 691 ft 140 kts 199°
2026-05-04 19:33 60.20282 11.08395 679 ft 106 kts 197°
2026-05-04 19:33 60.19832 11.08137 681 ft 39 kts 196°
2026-05-04 19:33 60.19613 11.08148 681 ft 14 kts 149°
2026-05-04 19:33 60.19579 11.08231 682 ft 0 kts 109°
2026-05-04 19:34 60.19575 11.08256 680 ft 5 kts 107°
2026-05-04 19:34 60.19567 11.08327 684 ft 5 kts 95°
2026-05-04 19:35 60.19562 11.08411 682 ft 6 kts 104°
2026-05-04 19:35 60.19552 11.08496 684 ft 6 kts 95°
2026-05-04 19:35 60.19606 11.08575 681 ft 18 kts 17°
2026-05-04 19:35 60.19745 11.08653 679 ft 22 kts 23°
2026-05-04 19:36 60.19765 11.08824 678 ft 13 kts 105°
2026-05-04 19:36 60.19741 11.08996 688 ft 13 kts 105°
2026-05-04 19:36 60.19718 11.09165 687 ft 13 kts 106°
2026-05-04 19:36 60.19685 11.09367 690 ft 17 kts 105°
2026-05-04 19:37 60.19652 11.09596 690 ft 17 kts 106°
2026-05-04 19:37 60.19653 11.09785 690 ft 13 kts 105°
2026-05-04 19:37 60.19639 11.09887 689 ft 6 kts 107°
2026-05-04 19:37 60.19631 11.09943 687 ft 3 kts 106°
2026-05-04 19:38 60.19630 11.09947 687 ft 0 kts 106°